Weather History for PAWG - April, 2014

Change the Weather History Date:

Sunday, April 6, 2014

  Actual Average Record
Temperature  
Mean Temperature 42 °F -  
Max Temperature 46 °F 47 °F 57 °F (1977)
Min Temperature 39 °F 32 °F 26 °F (1972)
Degree Days  
Heating Degree Days 22    
Moisture  
Dew Point 36 °F    
Average Humidity 77    
Maximum Humidity 87    
Minimum Humidity 66    
Precipitation  
Precipitation 0.16 in - - ()
Sea Level Pressure  
Sea Level Pressure 29.87 in    
Wind  
Wind Speed 8 mph (ESE)    
Max Wind Speed 17 mph    
Max Gust Speed 24 mph    
Visibility 10 miles    
Events      
Averages and records for this station are not official NWS values.
T = Trace of Precipitation, MM = Missing Value Source: NWS Daily Summary

Daily Weather History Graph

Daily Weather History Graph

Search for Another Location

Airport or City:

Trip Planner

Search our weather history database for the weather conditions in past years. The results will help you decide how hot, cold, wet, or windy it might be!

Date:

Astronomy

Apr. 06, 2014 Rise Set
Actual Time 6:05 AM AKDT 7:39 PM AKDT
Civil Twilight 5:26 AM AKDT 8:18 PM AKDT
Nautical Twilight 4:37 AM AKDT 9:07 PM AKDT
Astronomical Twilight 3:42 AM AKDT 10:03 PM AKDT
Moon 10:36 AM AKDT (4/6) 2:17 AM AKDT (4/6)
Length of Visible Light 14h 52m
Length of Day
13h 33m
Waxing Crescent, 45% of the Moon is Illuminated
Apr 6
Waxing Crescent
Apr 7
First Quarter
Apr 14
Full
Apr 21
Last Quarter
Apr 28
New

Hourly Weather History & Observations

Time (AKDT) Temp. Windchill Dew Point Humidity Pressure Visibility Wind Dir Wind Speed Gust Speed Precip Events Conditions
12:16 AM 39.2 °F 32.5 °F 35.6 °F 87% 29.85 in 10.0 mi ESE 10.4 mph - N/A   Overcast
12:36 AM 39.2 °F 32.5 °F 35.6 °F 87% 29.85 in 10.0 mi ESE 10.4 mph - N/A   Overcast
12:56 AM 39.2 °F 33.6 °F 33.8 °F 81% 29.86 in 10.0 mi SE 8.1 mph - N/A   Overcast
1:16 AM 39.2 °F 33.6 °F 33.8 °F 81% 29.86 in 10.0 mi SSE 8.1 mph - N/A   Overcast
1:36 AM 39.2 °F 34.2 °F 35.6 °F 87% 29.88 in 10.0 mi ESE 6.9 mph - N/A   Overcast
1:56 AM 41.0 °F - 35.6 °F 81% 29.88 in 10.0 mi Calm Calm - 0.01 in   Overcast
2:16 AM 39.2 °F 35.9 °F 35.6 °F 87% 29.88 in 10.0 mi East 4.6 mph - N/A   Overcast
2:36 AM 39.2 °F 35.9 °F 35.6 °F 87% 29.87 in 10.0 mi East 4.6 mph - N/A   Overcast
2:56 AM 41.0 °F 36.4 °F 35.6 °F 81% 29.87 in 10.0 mi East 6.9 mph - N/A   Overcast
3:16 AM 39.2 °F 35.9 °F 33.8 °F 81% 29.88 in 10.0 mi SW 4.6 mph - N/A   Overcast
3:36 AM 39.2 °F - 35.6 °F 87% 29.90 in 7.0 mi Calm Calm - 0.01 in   Overcast
3:56 AM 41.0 °F - 33.8 °F 76% 29.90 in 10.0 mi Calm Calm - 0.01 in   Overcast
4:16 AM 41.0 °F - 35.6 °F 81% 29.91 in 10.0 mi Calm Calm - N/A   Overcast
4:36 AM 39.2 °F 35.9 °F 33.8 °F 81% 29.91 in 10.0 mi WSW 4.6 mph - N/A   Overcast
4:56 AM 39.2 °F - 35.6 °F 87% 29.92 in 9.0 mi Calm Calm - 0.01 in   Overcast
5:16 AM 39.2 °F 37.0 °F 33.8 °F 81% 29.93 in 10.0 mi SW 3.5 mph - 0.01 in   Overcast
5:36 AM 41.0 °F 37.1 °F 35.6 °F 81% 29.93 in 10.0 mi SW 5.8 mph - 0.02 in   Overcast
5:56 AM 41.0 °F 38.0 °F 35.6 °F 81% 29.94 in 10.0 mi SSW 4.6 mph - 0.02 in   Overcast
6:16 AM 39.2 °F - 35.6 °F 87% 29.94 in 10.0 mi Calm Calm - N/A   Overcast
6:36 AM 41.0 °F - 35.6 °F 81% 29.94 in 10.0 mi Calm Calm - N/A   Overcast
6:56 AM 41.0 °F 39.0 °F 35.6 °F 81% 29.95 in 10.0 mi SSE 3.5 mph - N/A   Overcast
7:16 AM 41.0 °F 37.1 °F 35.6 °F 81% 29.94 in 10.0 mi SE 5.8 mph - N/A   Overcast
7:36 AM 41.0 °F 35.2 °F 35.6 °F 81% 29.94 in 10.0 mi SE 9.2 mph - N/A   Overcast
7:56 AM 41.0 °F 36.4 °F 35.6 °F 81% 29.94 in 10.0 mi SE 6.9 mph - N/A   Overcast
8:16 AM 41.0 °F 35.8 °F 35.6 °F 81% 29.95 in 10.0 mi East 8.1 mph - N/A   Overcast
8:36 AM 42.8 °F 37.5 °F 35.6 °F 76% 29.95 in 10.0 mi East 9.2 mph - N/A   Overcast
8:56 AM 42.8 °F 38.0 °F 35.6 °F 76% 29.96 in 10.0 mi East 8.1 mph - N/A   Overcast
9:16 AM 42.8 °F 37.5 °F 35.6 °F 76% 29.96 in 10.0 mi East 9.2 mph - N/A   Overcast
9:36 AM 42.8 °F 41.1 °F 35.6 °F 76% 29.97 in 10.0 mi SSW 3.5 mph - N/A   Overcast
9:56 AM 42.8 °F 41.1 °F 37.4 °F 81% 29.97 in 10.0 mi NE 3.5 mph - N/A   Overcast
10:16 AM 42.8 °F 40.1 °F 35.6 °F 76% 29.98 in 10.0 mi SSE 4.6 mph - N/A   Overcast
10:36 AM 44.6 °F - 35.6 °F 71% 29.98 in 10.0 mi Calm Calm - N/A   Overcast
10:56 AM 44.6 °F 42.2 °F 35.6 °F 71% 29.99 in 10.0 mi South 4.6 mph - N/A   Overcast
11:16 AM 44.6 °F 39.7 °F 37.4 °F 76% 29.99 in 10.0 mi SE 9.2 mph - N/A   Overcast
11:36 AM 44.6 °F 42.2 °F 35.6 °F 71% 29.99 in 10.0 mi SSE 4.6 mph - N/A   Overcast
11:56 AM 44.6 °F 39.2 °F 37.4 °F 76% 29.98 in 10.0 mi ESE 10.4 mph - N/A   Mostly Cloudy
12:16 PM 44.6 °F 37.8 °F 35.6 °F 71% 29.98 in 10.0 mi ESE 15.0 mph - N/A   Mostly Cloudy
12:36 PM 44.6 °F 39.2 °F 35.6 °F 71% 29.98 in 10.0 mi ESE 10.4 mph - N/A   Mostly Cloudy
12:56 PM 44.6 °F 37.8 °F 35.6 °F 71% 29.97 in 10.0 mi ESE 15.0 mph - N/A   Mostly Cloudy
1:16 PM 44.6 °F 38.8 °F 35.6 °F 71% 29.97 in 10.0 mi ESE 11.5 mph - N/A   Mostly Cloudy
1:36 PM 46.4 °F 40.7 °F 35.6 °F 66% 29.96 in 10.0 mi East 12.7 mph 17.3 mph N/A   Mostly Cloudy
1:56 PM 46.4 °F 41.9 °F 35.6 °F 66% 29.95 in 10.0 mi ESE 9.2 mph - N/A   Mostly Cloudy
2:16 PM 46.4 °F 41.5 °F 35.6 °F 66% 29.95 in 10.0 mi ESE 10.4 mph - N/A   Mostly Cloudy
2:36 PM 46.4 °F 41.5 °F 35.6 °F 66% 29.94 in 10.0 mi ESE 10.4 mph - N/A   Mostly Cloudy
2:56 PM 44.6 °F 38.1 °F 35.6 °F 71% 29.93 in 10.0 mi ESE 13.8 mph - N/A   Mostly Cloudy
3:16 PM 44.6 °F 38.4 °F 35.6 °F 71% 29.92 in 10.0 mi ESE 12.7 mph 16.1 mph N/A   Overcast
3:36 PM 44.6 °F 38.4 °F 35.6 °F 71% 29.92 in 10.0 mi SE 12.7 mph - N/A   Overcast
3:56 PM 44.6 °F 38.1 °F 35.6 °F 71% 29.91 in 10.0 mi SE 13.8 mph - N/A   Overcast
4:16 PM 44.6 °F 40.2 °F 35.6 °F 71% 29.90 in 10.0 mi East 8.1 mph - N/A   Overcast
4:36 PM 42.8 °F 37.0 °F 37.4 °F 81% 29.88 in 10.0 mi East 10.4 mph - N/A   Overcast
4:56 PM 44.6 °F 39.7 °F 37.4 °F 76% 29.86 in 10.0 mi East 9.2 mph - N/A   Mostly Cloudy
5:16 PM 42.8 °F 38.0 °F 37.4 °F 81% 29.85 in 10.0 mi East 8.1 mph - N/A   Mostly Cloudy
5:36 PM 44.6 °F 39.7 °F 37.4 °F 76% 29.83 in 10.0 mi East 9.2 mph - N/A   Mostly Cloudy
5:56 PM 44.6 °F 38.4 °F 37.4 °F 76% 29.81 in 10.0 mi East 12.7 mph - N/A   Partly Cloudy
6:16 PM 44.6 °F 39.7 °F 35.6 °F 71% 29.81 in 10.0 mi ESE 9.2 mph - N/A   Partly Cloudy
6:36 PM 44.6 °F 39.2 °F 35.6 °F 71% 29.79 in 10.0 mi East 10.4 mph - N/A   Partly Cloudy
6:56 PM 44.6 °F 39.2 °F 35.6 °F 71% 29.78 in 10.0 mi East 10.4 mph 17.3 mph N/A   Scattered Clouds
7:16 PM 42.8 °F 37.0 °F 35.6 °F 76% 29.78 in 10.0 mi East 10.4 mph - N/A   Scattered Clouds
7:36 PM 42.8 °F 36.6 °F 37.4 °F 81% 29.76 in 10.0 mi ENE 11.5 mph - N/A   Scattered Clouds
7:56 PM 42.8 °F 38.0 °F 37.4 °F 81% 29.76 in 10.0 mi East 8.1 mph - N/A   Overcast
8:16 PM 42.8 °F 37.5 °F 37.4 °F 81% 29.74 in 10.0 mi East 9.2 mph - 0.01 in   Overcast
8:36 PM 42.8 °F 37.0 °F 37.4 °F 81% 29.74 in 10.0 mi East 10.4 mph - 0.02 in   Overcast
8:56 PM 42.8 °F 37.5 °F 37.4 °F 81% 29.73 in 10.0 mi East 9.2 mph - 0.03 in   Overcast
9:16 PM 42.8 °F 37.5 °F 35.6 °F 76% 29.72 in 10.0 mi East 9.2 mph - N/A   Overcast
9:36 PM 42.8 °F 36.2 °F 35.6 °F 76% 29.71 in 10.0 mi ESE 12.7 mph 17.3 mph 0.01 in   Overcast
9:56 PM 44.6 °F 37.8 °F 33.8 °F 66% 29.70 in 10.0 mi SE 15.0 mph 23.0 mph 0.01 in   Overcast
10:16 PM 42.8 °F 35.1 °F 33.8 °F 70% 29.69 in 10.0 mi SE 16.1 mph 23.0 mph 0.01 in   Overcast
10:36 PM 42.8 °F 34.8 °F 33.8 °F 70% 29.69 in 10.0 mi SSE 17.3 mph - 0.02 in   Overcast
10:56 PM 42.8 °F 35.4 °F 33.8 °F 70% 29.68 in 10.0 mi SE 15.0 mph 24.2 mph 0.03 in   Overcast
11:16 PM 42.8 °F 36.6 °F 33.8 °F 70% 29.67 in 9.0 mi SE 11.5 mph 20.7 mph N/A   Overcast
11:36 PM 42.8 °F 36.6 °F 33.8 °F 70% 29.67 in 9.0 mi SE 11.5 mph 18.4 mph 0.01 in   Overcast
11:56 PM 42.8 °F 34.8 °F 33.8 °F 70% 29.65 in 9.0 mi SE 17.3 mph 23.0 mph 0.04 in   Overcast